This is the latest recevied weather packets stored in our database for station/object SQ6XL-13. If no packets are shown the sender has not sent any weather packets the latest 10 day(s).
| Time | Temp. | Humidity | Pressure | Rain* | Wind** | Luminosity | Snow |
|---|---|---|---|---|---|---|---|
| 1787873450 | 11.67° C | 89% | 1019.4 hPa | 0 mm | - | - | - |
| 1787872913 | 12.22° C | 88% | 1019.6 hPa | 0 mm | - | - | - |
| 1787872380 | 12.22° C | 88% | 1019.7 hPa | 0 mm | - | - | - |
| 1787871900 | 12.22° C | 87% | 1019.6 hPa | 0 mm | - | - | - |
| 1787871395 | 12.22° C | 87% | 1019.9 hPa | 0 mm | - | - | - |
| 1787870880 | 12.78° C | 87% | 1019.9 hPa | 0 mm | - | - | - |
| 1787870350 | 12.78° C | 86% | 1019.9 hPa | 0 mm | - | - | - |
| 1787869795 | 12.78° C | 85% | 1020 hPa | 0 mm | - | - | - |
| 1787869215 | 13.33° C | 84% | 1020 hPa | 0 mm | - | - | - |
| 1787868690 | 13.33° C | 84% | 1020 hPa | 0 mm | - | - | - |
| 1787868170 | 13.89° C | 83% | 1020.1 hPa | 0 mm | - | - | - |
| 1787867630 | 14.44° C | 82% | 1020.3 hPa | 0 mm | - | - | - |
| 1787867090 | 14.44° C | 82% | 1020.3 hPa | 0 mm | - | - | - |
| 1787866510 | 14.44° C | 83% | 1020.4 hPa | 0 mm | - | - | - |
| 1787866030 | 14.44° C | 83% | 1020.4 hPa | 0 mm | - | - | - |
| 1787865465 | 14.44° C | 83% | 1020.2 hPa | 0 mm | - | - | - |
| 1787864935 | 13.89° C | 84% | 1020.1 hPa | 0 mm | - | - | - |
| 1787864355 | 13.89° C | 83% | 1020.2 hPa | 0 mm | - | - | - |
| 1787863855 | 13.89° C | 83% | 1020.3 hPa | 0 mm | - | - | - |
| 1787863316 | 14.44° C | 82% | 1020.2 hPa | 0 mm | - | - | - |
| 1787862755 | 14.44° C | 81% | 1020.3 hPa | 0 mm | - | - | - |
| 1787862190 | 14.44° C | 80% | 1020.1 hPa | 0 mm | - | - | - |
| 1787861655 | 15° C | 79% | 1020.3 hPa | 0 mm | - | - | - |
| 1787861060 | 15.56° C | 77% | 1020.3 hPa | 0 mm | - | - | - |
| 1787860575 | 15.56° C | 75% | 1020.4 hPa | 0 mm | - | - | - |
* Rain latest hour (hover to see other rain measurements)
** Current wind speed in m/s (hover to see current wind gust speed)